ボレリー彗星

19P/Borrelly (2008)

English version
Home page
Updated on November 5, 2020

---------------------------------------------------------------------

・ プロフィール

・ 写真集

・ 軌道要素

Epoch 2008 Aug. 2.0 TT = JDT 2454680.5
T 2008 July 22.34399 TT                                 MPC
q   1.3547816            (2000.0)            P               Q
n   0.14382917     Peri.  353.37903     +0.34596986     -0.80092948
a   3.6077636      Node    75.44468     +0.88232139     +0.10059787
e   0.6244816      Incl.   30.32426     +0.31908280     +0.59024744
P   6.85
From 2017 observations 1994 June 12-2010 Feb. 11, mean residual 0".8.
     Nongravitational parameters A1 = +0.22, A2 = -0.0379.

・ 星図

・ 光度変化

        H = 15.0  G = 0.15               [    ,-370]  (              〜2007年 7月18日)
        m1 = 4.5 + 5 logΔ + 25.0 log r  [-370, 125]  (2007年 7月18日〜2008年11月24日)
        m1 = 7.4 + 5 logΔ + 15.0 log r  [ 125,    ]  (2008年11月24日〜              )

---------------------------------------------------------------------

軌道要素はM.P.E.C. 2012-J16に掲載されたものです。
星図は StellaNavigator Ver.2.0 for Windows (アストロアーツ編著 / アスキー出版局刊) で作成したものです。
光度グラフはComet for Windowsで作成したものです。

---------------------------------------------------------------------

Copyright(C) Seiichi Yoshida (comet@aerith.net). All rights reserved.